Date,TemperatureHighF,TemperatureAvgF,TemperatureLowF,DewpointHighF,DewpointAvgF,DewpointLowF,HumidityHigh,HumidityAvg,HumidityLow,PressureMaxIn,PressureMinIn,WindSpeedMaxMPH,WindSpeedAvgMPH,GustSpeedMaxMPH,PrecipitationSumIn
2014-1-1,39,30,22,31,23,16,81,77,72,30.70,30.46,0,0,0,0.00
2014-1-2,29,18,9,22,13,0,83,79,68,30.76,30.35,0,0,0,0.00
2014-1-3,17,10,-2,8,2,-8,77,70,63,30.92,30.59,0,0,0,0.00
2014-1-4,37,26,14,25,17,7,74,67,59,30.60,30.42,0,0,0,0.05
2014-1-5,35,31,11,30,26,5,88,79,66,30.46,30.05,0,0,0,0.02
2014-1-6,11,-6,-11,6,-14,-19,79,70,62,30.78,30.32,0,0,0,0.01
2014-1-7,10,1,-10,4,-6,-16,74,72,70,30.86,30.76,0,0,0,0.00
2014-1-8,28,18,9,21,11,2,78,74,71,30.92,30.75,0,0,0,0.00
2014-1-9,32,25,16,29,20,10,87,81,77,30.93,30.69,0,0,0,0.00
2014-1-10,42,37,32,40,34,29,91,89,87,30.69,30.13,0,0,0,0.01
2014-1-11,44,40,36,42,36,31,92,87,80,30.25,29.94,0,0,0,0.04
2014-1-12,41,36,31,35,30,26,83,80,75,30.49,30.25,0,0,0,0.01
2014-1-13,49,44,37,42,37,32,83,77,74,30.28,30.10,0,0,0,0.00
2014-1-14,43,33,27,34,27,18,86,78,62,30.39,30.18,0,0,0,0.01
2014-1-15,29,23,20,20,16,12,77,72,65,30.55,30.37,0,0,0,0.00
2014-1-16,30,25,18,27,19,11,88,79,72,30.47,30.12,0,0,0,0.00
2014-1-17,31,20,13,27,13,4,86,74,61,30.49,30.17,0,0,0,0.00
2014-1-18,26,20,15,22,14,8,85,79,74,30.48,30.21,0,0,0,0.00
2014-1-19,36,27,18,27,21,14,86,78,70,30.40,30.13,0,0,0,0.00
2014-1-20,40,36,32,30,28,26,81,73,64,30.37,30.10,0,0,0,0.13
2014-1-21,34,15,6,28,7,-2,83,70,53,30.66,30.29,0,0,0,0.00
2014-1-22,18,16,9,12,9,2,80,77,70,30.54,30.44,0,0,0,0.00
2014-1-23,9,3,-2,2,-5,-10,76,69,64,31.04,30.54,0,0,0,0.00
2014-1-24,22,9,-3,13,1,-9,75,67,57,31.03,30.21,0,0,0,0.00
2014-1-25,32,21,10,24,12,-1,83,68,49,30.37,29.97,0,0,0,0.00
2014-1-26,42,26,9,32,16,-1,78,66,60,30.36,29.98,0,0,0,0.04
2014-1-27,28,6,-4,22,-4,-13,80,62,43,30.88,30.15,0,0,0,0.00
2014-1-28,12,2,-6,-3,-8,-15,69,61,48,30.90,30.76,0,0,0,0.00
2014-1-29,26,14,4,11,3,-4,67,60,50,30.76,30.65,0,0,0,0.00
2014-1-30,34,23,14,18,10,3,63,57,50,30.66,30.29,0,0,0,0.00
2014-1-31,36,34,33,28,22,16,73,61,49,30.59,30.40,0,0,0,0.01
2014-2-1,41,36,33,38,32,26,90,82,73,30.52,30.27,0,0,0,0.70
2014-2-2,34,28,22,30,23,16,87,81,75,30.70,30.43,0,0,0,0.02
2014-2-3,27,20,13,19,13,8,80,76,70,30.83,30.64,0,0,0,0.00
2014-2-4,27,21,16,20,15,10,84,78,72,30.84,30.34,0,0,0,0.00
2014-2-5,27,23,21,20,18,15,85,80,73,30.85,30.24,0,0,0,0.00
2014-2-6,21,13,2,16,5,-6,81,72,59,30.92,30.82,0,0,0,0.00
2014-2-7,17,7,-3,4,-2,-10,74,66,53,30.90,30.80,0,0,0,0.00
2014-2-8,25,17,8,19,9,-1,76,72,67,30.80,30.57,0,0,0,0.00
2014-2-9,26,21,12,20,14,5,85,76,64,30.71,30.53,0,0,0,0.00
2014-2-10,16,8,2,7,0,-7,80,71,58,30.87,30.70,0,0,0,0.00
2014-2-11,16,5,-6,8,-3,-14,73,69,66,30.95,30.83,0,0,0,0.00
2014-2-12,30,13,-2,18,4,-9,75,67,57,30.84,30.47,0,0,0,0.00
2014-2-13,36,22,7,22,12,0,74,65,56,30.47,30.07,0,0,0,0.00
2014-2-14,34,23,18,25,16,10,81,74,63,30.32,30.05,0,0,0,0.00
2014-2-15,29,20,12,18,12,6,80,72,62,30.57,30.31,0,0,0,0.00
2014-2-16,27,24,21,20,18,15,81,75,69,30.74,30.39,0,0,0,0.00
2014-2-17,35,26,19,30,20,12,85,78,72,30.74,30.13,0,0,0,0.00
2014-2-18,46,39,31,34,30,25,83,72,60,30.53,30.21,0,0,0,0.00
2014-2-19,49,41,36,36,32,28,77,69,58,30.52,30.14,0,0,0,0.08
2014-2-20,56,45,36,52,39,29,88,80,73,30.46,29.88,0,0,0,0.63
2014-2-21,44,39,35,32,27,21,78,64,42,30.38,30.08,0,0,0,0.00
2014-2-22,49,41,34,36,30,24,75,64,54,30.50,30.33,0,0,0,0.00
2014-2-23,37,31,24,30,22,14,82,70,52,30.67,30.47,0,0,0,0.03
2014-2-24,32,25,19,16,12,10,72,60,42,30.74,30.64,0,0,0,0.00
2014-2-25,26,23,18,17,14,3,71,66,51,30.67,30.57,0,0,0,0.00
2014-2-26,23,14,6,7,2,-2,72,60,46,30.68,30.28,0,0,0,0.00
2014-2-27,21,17,11,10,3,0,64,54,42,30.62,30.18,0,0,0,0.01
2014-2-28,38,23,8,17,9,-1,68,55,41,30.68,30.51,0,0,0,0.00
2014-3-1,49,35,28,31,22,14,76,59,48,30.68,30.50,0,0,0,0.00
2014-3-2,27,22,16,20,15,7,80,74,69,30.74,30.61,0,0,0,0.00
2014-3-3,23,14,8,9,4,0,73,63,50,30.90,30.72,0,0,0,0.00
2014-3-4,35,21,8,20,9,-1,68,61,54,30.82,30.63,0,0,0,0.02
2014-3-5,35,25,19,21,15,10,72,66,55,30.82,30.64,0,0,0,0.00
2014-3-6,46,29,20,32,20,11,73,67,55,30.82,30.58,0,0,0,0.04
2014-3-7,60,40,24,40,29,18,82,65,46,30.58,30.40,0,0,0,0.02
2014-3-8,46,39,29,38,31,22,80,73,61,30.68,30.41,0,0,0,0.00
2014-3-9,49,34,22,32,24,17,81,67,51,30.75,30.44,0,0,0,0.00
2014-3-10,60,48,38,45,37,29,75,66,55,30.45,30.18,0,0,0,0.00
2014-3-11,74,57,48,53,45,39,80,66,41,30.21,30.05,0,0,0,0.00
2014-3-12,51,35,21,40,28,13,87,76,62,30.51,29.81,0,0,0,0.81
2014-3-13,38,27,16,25,18,11,80,69,58,30.66,30.48,0,0,0,0.00
2014-3-14,62,46,34,40,32,22,70,59,41,30.48,30.18,0,0,0,0.00
2014-3-15,57,45,38,36,31,27,76,60,40,30.61,30.37,0,0,0,0.00
2014-3-16,38,30,23,28,19,13,70,64,57,30.66,30.52,0,0,0,0.00
2014-3-17,43,29,19,28,18,11,72,65,56,30.53,30.30,0,0,0,0.00
2014-3-18,58,41,27,43,32,20,78,69,56,30.40,30.22,0,0,0,0.00
2014-3-19,53,46,36,45,39,28,80,77,72,30.49,30.18,0,0,0,0.00
2014-3-20,53,41,32,35,30,24,74,64,49,30.56,30.45,0,0,0,0.00
2014-3-21,71,52,38,44,36,31,77,57,37,30.50,30.24,0,0,0,0.00
2014-3-22,58,43,38,40,32,29,75,65,43,30.66,30.24,0,0,0,0.00
2014-3-23,39,33,27,29,20,16,72,60,46,30.81,30.66,0,0,0,0.00
2014-3-24,42,31,22,20,16,12,70,55,37,30.80,30.57,0,0,0,0.00
2014-3-25,33,29,26,24,17,10,81,62,45,30.67,30.45,0,0,0,0.00
2014-3-26,47,30,19,22,14,8,69,52,35,30.82,30.63,0,0,0,0.00
2014-3-27,52,41,34,38,27,16,69,57,47,30.63,30.19,0,0,0,0.09
2014-3-28,52,46,39,46,39,33,82,77,69,30.60,30.12,0,0,0,0.16
2014-3-29,39,37,34,34,32,30,88,83,76,30.64,30.48,0,0,0,0.30
2014-3-30,54,40,28,37,30,25,88,70,46,30.72,30.59,0,0,0,0.00
2014-3-31,67,52,39,41,36,30,69,55,37,30.62,30.37,0,0,0,0.00
2014-4-1,65,57,52,44,38,33,64,50,33,30.56,30.30,0,0,0,0.02
2014-4-2,55,50,45,47,41,34,82,73,50,30.61,30.47,0,0,0,0.00
2014-4-3,64,54,50,59,50,46,90,86,77,30.50,30.11,0,0,0,0.00
2014-4-4,58,48,38,54,42,28,91,81,67,30.47,29.93,0,0,0,0.00
2014-4-5,50,41,34,36,31,26,74,66,52,30.67,30.47,0,0,0,0.00
2014-4-6,58,46,33,40,34,26,80,64,49,30.65,30.41,0,0,0,0.00
2014-4-7,49,45,42,43,38,34,90,77,61,30.41,29.91,0,0,0,0.38
2014-4-8,56,48,39,49,42,36,91,80,63,30.35,30.09,0,0,0,0.00
2014-4-9,61,50,38,43,38,33,81,64,44,30.53,30.34,0,0,0,0.00
2014-4-10,75,59,46,53,44,35,75,57,41,30.47,30.27,0,0,0,0.05
2014-4-11,68,59,52,53,45,35,86,63,33,30.56,30.39,0,0,0,0.11
2014-4-12,78,63,48,58,47,36,65,57,45,30.58,30.30,0,0,0,0.00
2014-4-13,76,70,64,59,56,53,70,61,51,30.34,30.13,0,0,0,0.00
2014-4-14,71,54,32,56,47,29,88,78,56,30.36,30.03,0,0,0,1.02
2014-4-15,37,33,30,30,23,16,89,67,46,30.71,30.34,0,0,0,1.46
2014-4-16,52,39,29,32,25,19,70,57,43,30.84,30.68,0,0,0,0.00
2014-4-17,68,53,38,42,34,26,61,50,35,30.75,30.68,0,0,0,0.00
2014-4-18,71,57,45,46,40,35,70,55,38,30.76,30.68,0,0,0,0.00
2014-4-19,67,54,41,46,40,32,79,60,42,30.81,30.72,0,0,0,0.00
2014-4-20,78,60,44,48,39,31,65,48,30,30.73,30.56,0,0,0,0.00
2014-4-21,60,54,50,43,40,39,68,61,51,30.57,30.51,0,0,0,0.00
2014-4-22,62,56,46,55,42,32,88,62,43,30.48,30.26,0,0,0,0.00
2014-4-23,59,48,36,38,33,28,74,58,41,30.60,30.47,0,0,0,0.00
2014-4-24,67,57,49,41,36,32,62,46,35,30.56,30.20,0,0,0,0.00
2014-4-25,66,59,53,52,43,34,89,58,36,30.37,30.09,0,0,0,0.00
2014-4-26,76,64,52,54,47,41,69,55,44,30.44,30.33,0,0,0,0.00
2014-4-27,74,59,45,51,43,35,69,55,43,30.52,30.30,0,0,0,0.00
2014-4-28,69,60,51,60,50,42,83,71,49,30.35,30.04,0,0,0,0.00
2014-4-29,74,62,55,57,51,46,84,69,39,30.26,30.00,0,0,0,0.00
2014-4-30,65,55,48,53,47,38,85,74,56,30.37,30.22,0,0,0,0.00
2014-5-1,55,49,45,41,39,37,76,67,56,30.37,30.30,0,0,0,0.00
2014-5-2,54,50,47,43,41,38,78,71,64,30.37,30.32,0,0,0,0.00
2014-5-3,69,57,47,45,40,34,78,55,29,30.39,30.23,0,0,0,0.00
2014-5-4,66,59,51,44,38,29,64,47,37,30.53,30.37,0,0,0,0.00
2014-5-5,68,57,48,49,40,30,63,54,45,30.51,30.31,0,0,0,0.00
2014-5-6,76,61,49,52,44,38,69,55,42,30.45,30.34,0,0,0,0.00
2014-5-7,88,72,59,64,54,44,67,54,41,30.42,30.34,0,0,0,0.00
2014-5-8,89,77,66,67,60,54,70,57,46,30.49,30.40,0,0,0,0.00
2014-5-9,79,72,67,65,58,54,74,63,56,30.43,30.28,0,0,0,0.00
2014-5-10,78,68,60,56,51,42,79,56,32,30.49,30.37,0,0,0,0.00
2014-5-11,85,69,60,69,58,44,81,67,52,30.55,30.43,0,0,0,0.00
2014-5-12,85,73,63,72,65,58,85,77,64,30.53,30.43,0,0,0,0.00
2014-5-13,82,71,59,70,64,54,85,79,66,30.60,30.43,0,0,0,0.00
2014-5-14,59,56,52,54,51,48,91,86,81,30.62,30.29,0,0,0,0.00
2014-5-15,53,49,45,50,44,40,91,83,68,30.53,30.23,0,0,0,0.00
2014-5-16,51,46,44,46,42,39,86,83,79,30.53,30.43,0,0,0,0.00
2014-5-17,57,49,42,42,39,33,88,70,45,30.71,30.51,0,0,0,0.00
2014-5-18,70,54,40,48,41,35,84,64,43,30.78,30.70,0,0,0,0.00
2014-5-19,73,59,46,50,44,38,76,59,43,30.76,30.53,0,0,0,0.00
2014-5-20,84,71,61,68,58,47,71,63,56,30.59,30.41,0,0,0,0.00
2014-5-21,83,72,68,71,63,59,84,75,66,30.44,30.36,0,0,0,0.00
2014-5-22,78,69,62,63,57,50,87,67,41,30.57,30.37,0,0,0,0.00
2014-5-23,76,65,55,54,50,47,76,61,42,30.65,30.57,0,0,0,0.00
2014-5-24,79,66,53,58,52,44,76,60,42,30.70,30.60,0,0,0,0.00
2014-5-25,87,71,59,61,55,50,76,58,37,30.65,30.55,0,0,0,0.00
2014-5-26,89,74,61,70,61,53,75,64,52,30.60,30.46,0,0,0,0.00
2014-5-27,88,79,71,70,65,63,77,63,47,30.51,30.40,0,0,0,0.00
2014-5-28,91,77,70,69,64,59,73,64,44,30.50,30.41,0,0,0,0.00
2014-5-29,85,75,67,69,65,61,83,72,57,30.57,30.48,0,0,0,0.00
2014-5-30,86,75,64,63,56,53,69,54,34,30.64,30.56,0,0,0,0.00
2014-5-31,91,76,64,62,56,52,67,51,34,30.69,30.56,0,0,0,0.00
2014-6-1,94,77,65,67,59,52,74,55,40,30.62,30.47,0,0,0,0.00
2014-6-2,78,73,70,69,66,64,86,79,73,30.54,30.42,0,0,0,0.00
2014-6-3,87,77,69,70,65,58,88,68,42,30.47,30.39,0,0,0,0.00
2014-6-4,78,68,62,71,62,56,88,79,66,30.42,30.20,0,0,0,0.00
2014-6-5,78,67,57,61,56,52,87,70,45,30.45,30.33,0,0,0,0.00
2014-6-6,84,70,56,60,55,50,81,62,41,30.50,30.42,0,0,0,0.00
2014-6-7,85,72,60,60,56,52,76,58,41,30.53,30.27,0,0,0,0.00
2014-6-8,77,70,61,63,60,56,87,72,54,30.47,30.16,0,0,0,0.00
2014-6-9,78,69,62,63,59,56,83,70,50,30.48,30.38,0,0,0,0.00
2014-6-10,73,69,64,65,62,58,86,78,67,30.40,30.21,0,0,0,0.00
2014-6-11,77,70,67,68,64,62,88,83,75,30.26,30.19,0,0,0,0.00
2014-6-12,83,72,64,67,63,60,86,73,54,30.35,30.24,0,0,0,0.00
2014-6-13,77,69,63,65,54,46,78,60,37,30.54,30.33,0,0,0,0.00
2014-6-14,82,66,51,56,49,43,73,56,39,30.63,30.52,0,0,0,0.00
2014-6-15,87,75,59,66,60,48,69,60,49,30.56,30.42,0,0,0,0.00
2014-6-16,89,79,72,74,68,64,80,70,60,30.61,30.51,0,0,0,0.00
2014-6-17,94,82,72,74,70,65,80,69,53,30.56,30.42,0,0,0,0.00
2014-6-18,92,78,68,77,70,63,90,76,61,30.54,30.43,0,0,0,0.00
2014-6-19,86,75,67,78,69,63,92,84,67,30.58,30.47,0,0,0,0.00
2014-6-20,84,76,69,73,69,66,88,79,65,30.54,30.39,0,0,0,0.00
2014-6-21,88,77,70,71,67,65,86,74,54,30.48,30.37,0,0,0,0.00
2014-6-22,77,73,71,68,66,64,81,77,73,30.42,30.38,0,0,0,0.00